Flag for Canada Weather past 2 weeks in Resolute Bay, Nunavut Territory, Canada

Now
12 °F

Passing clouds.


Feels Like: -9 °F
Forecast: 16 / 20 °F
Wind: 28 mph from North

Location: Resolute

Current Time: Oct 2, 2014 at 6:45:30 AM

Latest Report: Oct 2, 2014 at 6:00 AM


Visibility: 15 mi

Pressure: 30.11 "Hg

Humidity: 79%

Dew point: 7 °F

Location of Resolute BayLocation

Historic Weather in Resolute Bay — Graph

°F

Resolute Bay temperature yesterday

Maximum temperature yesterday: 16 °F (at 1:00 PM)
Minimum temperature yesterday: 12 °F (at 3:00 AM)
Average temperature yesterday: 14 °F

Past Weeks' High & Low Weather Summary

 TemperatureHumidityPressure
High32 °F (Sep 19, 11:00 AM)100% (Sep 18, 1:00 AM)30.13 "Hg (Sep 18, 1:00 AM)
Low7 °F (Sep 27, 1:00 PM)73% (Oct 1, 1:00 AM)29.56 "Hg (Sep 26, 3:00 AM)
Average20 °F88%29.86 "Hg
* Reported Sep 17 5:00 AM — Oct 2 5:00 AM, Resolute Bay, Weather by CustomWeather, © 2014

Note: Actual official high and low records may vary slightly from our data, if they occured in-between our weather recording intervals... More about our weather records

Advertising

Resolute Bay weather history for previous 24 hours

 ConditionsComfort  
Time TempWeatherWind HumidityBarometerVisibility
5:00 AM
Oct 2
12 °FClear.22 mph79%30.12 "Hg15 mi
4:00 AM12 °FPassing clouds.21 mph73%30.12 "Hg15 mi
3:00 AM12 °FPassing clouds.24 mph79%30.13 "Hg15 mi
2:00 AM14 °FPassing clouds.24 mph73%30.12 "Hg15 mi
1:00 AM14 °FPassing clouds.30 mph73%30.10 "Hg15 mi
12:00 AM14 °FPassing clouds.28 mph73%30.11 "Hg15 mi
11:00 PM
Oct 1
14 °FPassing clouds.26 mph79%30.12 "Hg15 mi
10:00 PM14 °FPassing clouds.20 mph73%30.11 "Hg15 mi
9:00 PM12 °FPassing clouds.22 mph79%30.10 "Hg15 mi
8:00 PM14 °FPassing clouds.26 mph73%30.10 "Hg15 mi
7:00 PM14 °FPassing clouds.26 mph73%30.12 "Hg15 mi
6:00 PM14 °FScattered clouds.25 mph79%30.11 "Hg15 mi
5:00 PM16 °FScattered clouds.25 mph73%30.13 "Hg15 mi
4:00 PM16 °FScattered clouds.32 mph73%30.11 "Hg15 mi
3:00 PM16 °FScattered clouds.28 mph73%30.12 "Hg15 mi
2:00 PM16 °FScattered clouds.29 mph73%30.12 "Hg15 mi
1:00 PM16 °FPartly sunny.25 mph73%30.11 "Hg15 mi
12:00 PM14 °FScattered clouds.26 mph73%30.11 "Hg15 mi
11:00 AM12 °FLow level haze.24 mph79%30.11 "Hg15 mi
10:00 AM12 °FLow level haze.23 mph79%30.10 "Hg15 mi
9:00 AM12 °FLow level haze.31 mph79%30.08 "Hg15 mi
8:00 AM12 °FLow level haze.30 mph85%30.08 "Hg15 mi
7:00 AM12 °FPassing clouds.30 mph79%30.10 "Hg15 mi
6:00 AM12 °FPassing clouds.16 mph79%30.11 "Hg15 mi
Weather by CustomWeather, © 2014

See weather overviewHow to use our weather pages